Sierra Vista, AZ

12:02 PM MST on June 25, 2017 (GMT -0700)
Sierra Vista Municipal-Libby Army Air Field

Weather History for KFHU - August, 2014

Change the Weather History Date:

Sunday, August 31, 2014

  Actual Average Record
Temperature  
Mean Temperature 80 °F -  
Max Temperature 93 °F 87 °F 96 °F (1985)
Min Temperature 68 °F 68 °F 53 °F (1992)
Cooling Degree Days 16    
Growing Degree Days 30 (Base 50)    
Moisture  
Dew Point 47 °F    
Average Humidity 32    
Maximum Humidity 49    
Minimum Humidity 20    
Precipitation  
Precipitation 0.00 in - - ()
Sea Level Pressure  
Sea Level Pressure 29.88 in    
Wind  
Wind Speed 7 mph (WSW)    
Max Wind Speed 16 mph    
Max Gust Speed 22 mph    
Visibility 10 miles    
Events      
Averages and records for this station are not official NWS values.
T = Trace of Precipitation, MM = Missing Value Source: NWS Daily Summary

Daily Weather History Graph

Daily Weather History Graph

Search for Another Location

Airport or City:

Trip Planner

Search our weather history database for the weather conditions in past years. The results will help you decide how hot, cold, wet, or windy it might be!

Date:

Astronomy

Aug. 31, 2014 Rise Set
Actual Time 5:56 AM MST 6:46 PM MST
Civil Twilight 5:31 AM MST 7:11 PM MST
Nautical Twilight 5:02 AM MST 7:40 PM MST
Astronomical Twilight 4:32 AM MST 8:10 PM MST
Moon 11:23 AM MST (8/31) 10:27 PM MST (8/31)
Length of Visible Light 13h 39m
Length of Day
12h 49m
Waxing Crescent, 33% of the Moon is Illuminated
Aug 31
Waxing Crescent
Sep 2
First Quarter
Sep 8
Full
Sep 15
Last Quarter
Sep 23
New

Hourly Weather History & Observations

Time (MST) Temp. Dew Point Humidity Pressure Visibility Wind Dir Wind Speed Gust Speed Precip Events Conditions
12:56 AM 79.0 °F 43.0 °F 28% 29.85 in 10.0 mi WSW 10.4 mph - N/A   Clear
1:56 AM 72.0 °F 46.0 °F 40% 29.87 in 10.0 mi SSE 3.5 mph - N/A   Clear
2:56 AM 72.0 °F 48.0 °F 43% 29.87 in 10.0 mi SE 5.8 mph - N/A   Clear
3:56 AM 68.0 °F 48.0 °F 49% 29.88 in 10.0 mi Calm Calm - N/A   Clear
4:56 AM 69.1 °F 45.0 °F 42% 29.89 in 10.0 mi West 5.8 mph - N/A   Clear
5:56 AM 70.0 °F 45.0 °F 41% 29.90 in 10.0 mi WSW 4.6 mph - N/A   Clear
6:56 AM 75.0 °F 48.9 °F 40% 29.92 in 10.0 mi Calm Calm - N/A   Clear
7:56 AM 78.1 °F 48.9 °F 36% 29.93 in 10.0 mi Calm Calm - N/A   Clear
8:56 AM 82.0 °F 48.9 °F 31% 29.93 in 10.0 mi ENE 4.6 mph - N/A   Clear
9:56 AM 84.9 °F 48.9 °F 29% 29.93 in 10.0 mi Calm Calm - N/A   Clear
10:56 AM 88.0 °F 48.9 °F 26% 29.91 in 10.0 mi Calm Calm - N/A   Clear
11:56 AM 90.0 °F 48.0 °F 24% 29.89 in 10.0 mi South 6.9 mph - N/A   Clear
12:56 PM 91.9 °F 50.0 °F 24% 29.87 in 10.0 mi NW 6.9 mph 17.3 mph N/A   Clear
1:56 PM 91.9 °F 50.0 °F 24% 29.87 in 10.0 mi SSW 9.2 mph 19.6 mph N/A   Scattered Clouds
2:56 PM 93.0 °F 46.9 °F 20% 29.85 in 10.0 mi West 11.5 mph 21.9 mph N/A   Clear
3:56 PM 91.9 °F 46.0 °F 21% 29.85 in 10.0 mi West 16.1 mph 21.9 mph N/A   Clear
4:56 PM 90.0 °F 46.0 °F 22% 29.84 in 10.0 mi West 11.5 mph - N/A   Clear
5:56 PM 88.0 °F 46.0 °F 23% 29.85 in 10.0 mi WSW 12.7 mph - N/A   Clear
6:56 PM 82.9 °F 48.9 °F 31% 29.86 in 10.0 mi WSW 9.2 mph - N/A   Clear
7:56 PM 81.0 °F 48.0 °F 31% 29.87 in 10.0 mi SW 9.2 mph - N/A   Clear
8:56 PM 79.0 °F 48.0 °F 34% 29.88 in 10.0 mi WSW 11.5 mph - N/A   Clear
9:56 PM 75.9 °F 46.9 °F 36% 29.88 in 10.0 mi West 8.1 mph - N/A   Clear
10:56 PM 73.9 °F 46.9 °F 38% 29.88 in 10.0 mi West 10.4 mph - N/A   Clear
11:56 PM 73.9 °F 46.0 °F 37% 29.88 in 10.0 mi SSW 8.1 mph - N/A   Clear